| time (UTC) | temp F | wind direction | speed knots | gust knots | rain 1hr in | rain 24hr in | rain mn in | humidity % | barometer mb |
| 20260507064557 | 40 | 256 | 0.0 | 0.9 | 0.00 | 0.61 | 0.01 | 98 | 1007.1 |
| 20260507063046 | 40 | 236 | 0.0 | 1.7 | 0.00 | 0.61 | 0.01 | 98 | 1007.1 |
| 20260507061542 | 40 | 229 | 0.0 | 0.9 | 0.01 | 0.61 | 0.01 | 98 | 1006.9 |
| 20260507060049 | 40 | 255 | 0.0 | 0.9 | 0.01 | 0.61 | 0.01 | 98 | 1007.2 |
| 20260507054542 | 40 | 245 | 0.0 | 2.6 | 0.01 | 0.61 | 0.01 | 98 | 1007.2 |
| 20260507053040 | 40 | 124 | 0.0 | 2.6 | 0.01 | 0.61 | 0.01 | 98 | 1007.5 |
| 20260507051539 | 40 | 117 | 0.0 | 2.6 | 0.00 | 0.60 | 0.00 | 98 | 1007.5 |
| 20260507050041 | 40 | 271 | 0.0 | 3.5 | 0.00 | 0.60 | 0.00 | 98 | 1007.7 |
| 20260507044535 | 40 | 269 | 0.0 | 5.2 | 0.00 | 0.60 | 0.00 | 98 | 1007.0 |
| 20260507043034 | 40 | 249 | 0.0 | 1.7 | 0.00 | 0.60 | 0.00 | 98 | 1007.2 |
| 20260507041547 | 40 | 259 | 0.0 | 2.6 | 0.00 | 0.60 | 0.00 | 98 | 1007.1 |
| 20260507040029 | 40 | 264 | 0.0 | 2.6 | 0.00 | 0.60 | 0.00 | 98 | 1007.0 |
| 20260507034528 | 40 | 266 | 0.9 | 3.5 | 0.00 | 0.60 | 0.60 | 97 | 1007.4 |
| 20260507033032 | 40 | 267 | 0.0 | 1.7 | 0.00 | 0.60 | 0.60 | 97 | 1007.1 |
| 20260507031527 | 40 | 256 | 0.0 | 2.6 | 0.00 | 0.60 | 0.60 | 97 | 1007.2 |
| 20260507030025 | 40 | 242 | 0.0 | 4.3 | 0.01 | 0.60 | 0.60 | 97 | 1007.0 |
| 20260507024523 | 40 | 235 | 0.9 | 4.3 | 0.02 | 0.60 | 0.60 | 97 | 1007.1 |
| 20260507023022 | 41 | 267 | 0.0 | 4.3 | 0.02 | 0.60 | 0.60 | 97 | 1007.0 |
| 20260507021522 | 41 | 242 | 0.0 | 2.6 | 0.03 | 0.60 | 0.60 | 97 | 1007.0 |
| 20260507020021 | 41 | 266 | 0.0 | 4.3 | 0.02 | 0.59 | 0.59 | 97 | 1007.1 |
| 20260507014527 | 41 | 193 | 0.9 | 5.2 | 0.01 | 0.57 | 0.57 | 97 | 1007.0 |
| 20260507013034 | 41 | 283 | 0.9 | 6.1 | 0.02 | 0.57 | 0.57 | 97 | 1006.8 |
| 20260507011529 | 41 | 245 | 0.9 | 4.3 | 0.01 | 0.56 | 0.56 | 97 | 1006.9 |
| 20260507010013 | 42 | 243 | 0.9 | 6.1 | 0.01 | 0.56 | 0.56 | 97 | 1006.6 |
| 20260507004516 | 42 | 264 | 0.0 | 4.3 | 0.01 | 0.56 | 0.56 | 97 | 1006.4 |
| 20260507003008 | 43 | 245 | 0.9 | 4.3 | 0.00 | 0.56 | 0.56 | 97 | 1006.1 |
| 20260507001508 | 43 | 273 | 0.9 | 7.8 | 0.01 | 0.56 | 0.56 | 96 | 1005.8 |
| 20260507000010 | 45 | 239 | 0.0 | 3.5 | 0.01 | 0.56 | 0.56 | 96 | 1005.4 |
| 20260506234558 | 47 | 285 | 0.0 | 3.5 | 0.01 | 0.56 | 0.56 | 97 | 1005.1 |
| 20260506233107 | 47 | 220 | 0.0 | 3.5 | 0.01 | 0.56 | 0.56 | 97 | 1004.8 |
| 20260506231556 | 47 | 114 | 0.0 | 2.6 | 0.00 | 0.55 | 0.55 | 96 | 1004.8 |
| 20260506230052 | 48 | 164 | 0.0 | 4.3 | 0.01 | 0.55 | 0.55 | 95 | 1004.5 |
| 20260506224548 | 52 | 285 | 1.7 | 5.2 | 0.01 | 0.55 | 0.55 | 94 | 1004.1 |
| 20260506223103 | 54 | 151 | 0.0 | 6.1 | 0.02 | 0.55 | 0.55 | 95 | 1003.7 |
| 20260506221547 | 55 | 134 | 0.0 | 1.7 | 0.02 | 0.55 | 0.55 | 95 | 1003.8 |
| 20260506220047 | 56 | 86 | 0.0 | 0.9 | 0.01 | 0.54 | 0.54 | 95 | 1003.4 |
| 20260506214545 | 57 | 115 | 0.9 | 2.6 | 0.01 | 0.55 | 0.54 | 93 | 1003.3 |
| 20260506213045 | 57 | 105 | 2.6 | 7.8 | 0.00 | 0.54 | 0.53 | 91 | 1003.3 |
| 20260506211546 | 57 | 122 | 2.6 | 7.0 | 0.00 | 0.54 | 0.53 | 91 | 1003.3 |
| 20260506210045 | 57 | 72 | 3.5 | 10.4 | 0.00 | 0.54 | 0.53 | 93 | 1003.2 |
| 20260506204543 | 57 | 141 | 0.9 | 7.8 | 0.01 | 0.54 | 0.53 | 96 | 1003.3 |
| 20260506203045 | 57 | 109 | 6.1 | 10.4 | 0.01 | 0.54 | 0.53 | 96 | 1003.0 |
| 20260506201542 | 56 | 108 | 9.6 | 15.6 | 0.02 | 0.54 | 0.53 | 96 | 1002.7 |
| 20260506194539 | 56 | 124 | 7.0 | 10.4 | 0.11 | 0.53 | 0.52 | 96 | 1003.2 |
| 20260506193037 | 56 | 95 | 6.1 | 12.2 | 0.16 | 0.53 | 0.52 | 96 | 1003.3 |
| 20260506191535 | 56 | 98 | 6.1 | 12.2 | 0.16 | 0.52 | 0.51 | 97 | 1003.4 |
| 20260506190035 | 55 | 98 | 4.3 | 9.6 | 0.18 | 0.51 | 0.50 | 97 | 1003.7 |
| 20260506184531 | 55 | 123 | 2.6 | 7.0 | 0.12 | 0.42 | 0.41 | 97 | 1004.2 |
| 20260506183031 | 56 | 150 | 1.7 | 7.8 | 0.09 | 0.37 | 0.36 | 97 | 1004.2 |
| 20260506181535 | 55 | 127 | 5.2 | 10.4 | 0.11 | 0.36 | 0.35 | 97 | 1004.0 |
| 20260506180037 | 55 | 105 | 6.1 | 10.4 | 0.10 | 0.33 | 0.32 | 97 | 1004.3 |
| 20260506174528 | 55 | 124 | 5.2 | 9.6 | 0.11 | 0.30 | 0.28 | 97 | 1004.3 |
| 20260506173024 | 55 | 99 | 5.2 | 11.3 | 0.13 | 0.27 | 0.26 | 97 | 1004.6 |
| 20260506171537 | 55 | 82 | 7.0 | 12.2 | 0.15 | 0.25 | 0.24 | 97 | 1005.0 |
| 20260506170022 | 55 | 96 | 7.0 | 12.2 | 0.14 | 0.22 | 0.21 | 97 | 1005.0 |
| 20260506164521 | 55 | 82 | 6.1 | 12.2 | 0.12 | 0.18 | 0.17 | 96 | 1005.1 |
| 20260506163022 | 56 | 108 | 4.3 | 8.7 | 0.09 | 0.14 | 0.13 | 96 | 1005.3 |
| 20260506161524 | 56 | 126 | 7.0 | 13.0 | 0.06 | 0.10 | 0.09 | 96 | 1005.2 |
| 20260506160016 | 56 | 96 | 4.3 | 7.8 | 0.06 | 0.08 | 0.07 | 96 | 1005.5 |
| 20260506154513 | 56 | 126 | 4.3 | 7.8 | 0.05 | 0.06 | 0.05 | 95 | 1005.7 |
| 20260506153012 | 56 | 95 | 4.3 | 8.7 | 0.04 | 0.05 | 0.04 | 95 | 1005.8 |
| 20260506151512 | 56 | 131 | 3.5 | 7.0 | 0.03 | 0.04 | 0.03 | 94 | 1006.0 |
| 20260506150011 | 57 | 111 | 0.9 | 5.2 | 0.01 | 0.02 | 0.01 | 91 | 1006.4 |
| 20260506144509 | 58 | 84 | 2.6 | 8.7 | 0.00 | 0.01 | 0.00 | 85 | 1006.7 |
| 20260506143010 | 59 | 148 | 1.7 | 6.1 | 0.00 | 0.01 | 0.00 | 82 | 1006.6 |
| 20260506141508 | 58 | 242 | 0.0 | 4.3 | 0.00 | 0.01 | 0.00 | 84 | 1006.4 |
| 20260506140010 | 59 | 151 | 0.9 | 5.2 | 0.00 | 0.01 | 0.00 | 83 | 1006.2 |
| 20260506134519 | 59 | 111 | 1.7 | 4.3 | 0.00 | 0.01 | 0.00 | 83 | 1006.1 |
| 20260506133007 | 58 | 149 | 0.9 | 4.3 | 0.00 | 0.01 | 0.00 | 85 | 1006.1 |
| 20260506131506 | 56 | 88 | 0.0 | 0.9 | 0.00 | 0.01 | 0.00 | 87 | 1006.2 |
| 20260506130006 | 55 | 121 | 0.0 | 0.9 | 0.00 | 0.01 | 0.00 | 88 | 1006.5 |
| 20260506124510 | 55 | 138 | 0.0 | 1.7 | 0.00 | 0.01 | 0.00 | 89 | 1006.9 |
| 20260506123005 | 54 | 262 | 0.0 | 1.7 | 0.00 | 0.01 | 0.00 | 92 | 1006.9 |
| 20260506121508 | 53 | 96 | 0.0 | 2.6 | 0.00 | 0.01 | 0.00 | 94 | 1006.7 |
| 20260506120009 | 52 | 208 | 0.0 | 0.9 | 0.00 | 0.01 | 0.00 | 94 | 1005.8 |
| 20260506114503 | 52 | 255 | 0.0 | 0.9 | 0.00 | 0.01 | 0.00 | 94 | 1006.5 |
| 20260506113004 | 52 | 200 | 0.0 | 0.9 | 0.00 | 0.01 | 0.00 | 94 | 1006.6 |
| 20260506111613 | 52 | 111 | 0.0 | 1.7 | 0.00 | 0.01 | 0.00 | 94 | 1006.5 |
| 20260506110059 | 52 | 259 | 0.0 | 0.9 | 0.00 | 0.01 | 0.00 | 94 | 1006.5 |
| 20260506104605 | 52 | 146 | 0.0 | 0.9 | 0.00 | 0.01 | 0.00 | 95 | 1006.4 |
| 20260506103105 | 52 | 251 | 0.0 | 0.9 | 0.00 | 0.01 | 0.00 | 94 | 1006.4 |
| 20260506101554 | 53 | 266 | 0.0 | 4.3 | 0.00 | 0.01 | 0.00 | 93 | 1006.2 |
| 20260506100054 | 53 | 156 | 0.0 | 0.9 | 0.00 | 0.01 | 0.00 | 93 | 1006.2 |
| 20260506094554 | 53 | 88 | 0.0 | 1.7 | 0.00 | 0.01 | 0.00 | 93 | 1006.2 |
| 20260506093056 | 53 | 92 | 0.0 | 0.9 | 0.00 | 0.01 | 0.00 | 95 | 1006.4 |
| 20260506091551 | 53 | 146 | 0.0 | 0.9 | 0.00 | 0.01 | 0.00 | 94 | 1006.6 |
| 20260506090050 | 53 | 13 | 0.0 | 0.0 | 0.00 | 0.01 | 0.00 | 95 | 1006.4 |
| 20260506084548 | 53 | 14 | 0.0 | 0.9 | 0.00 | 0.01 | 0.00 | 94 | 1006.7 |
| 20260506083107 | 53 | 43 | 0.0 | 0.9 | 0.00 | 0.01 | 0.00 | 94 | 1006.9 |
| 20260506081549 | 53 | 21 | 0.0 | 0.0 | 0.00 | 0.01 | 0.00 | 93 | 1007.0 |
| 20260506073038 | 54 | 22 | 0.0 | 0.0 | 0.00 | 0.01 | 0.00 | 92 | 1007.3 |
| 20260506071535 | 54 | 21 | 0.0 | 0.9 | 0.00 | 0.01 | 0.00 | 91 | 1007.2 |